OK1PNK-5 Weather Reports


time (UTC)temp
F
wind
direction
speed
knots
gust
knots
rain 1hr
in
rain 24hr
in
rain mn
in
humidity
%
barometer
mb
20260906023043 56 255 1.7 4.3 0.00 0.00 0.00 71 984.3
20260906022043 56 278 1.7 4.3 0.00 0.00 0.00 71 984.0
20260906021043 56 278 1.7 4.3 0.00 0.00 0.00 71 984.0
20260906020043 56 278 2.6 5.2 0.00 0.00 0.00 71 984.0
20260906015043 56 270 1.7 5.2 0.00 0.00 0.00 70 984.0
20260906014043 56 225 1.7 1.7 0.00 0.00 0.00 70 983.9
20260906013043 57 218 1.7 2.6 0.00 0.00 0.00 70 983.9
20260906012044 57 175 1.7 4.3 0.00 0.00 0.00 70 983.8
20260906011043 58 195 1.7 2.6 0.00 0.00 0.00 69 983.9
20260906010043 58 230 1.7 4.3 0.00 0.00 0.00 68 983.8
20260906005043 58 278 1.7 4.3 0.00 0.00 0.00 68 983.8
20260906004043 58 270 1.7 3.5 0.00 0.00 0.00 67 983.8
20260906003043 58 270 1.7 3.5 0.00 0.00 0.00 67 983.6
20260906002047 58 282 1.7 5.2 0.00 0.00 0.00 67 983.5
20260905235955 59 270 1.7 5.2 0.00 0.00 0.00 66 983.4
20260905234955 59 278 2.6 5.2 0.00 0.00 0.00 66 983.4
20260905233955 59 281 2.6 5.2 0.00 0.00 0.00 66 983.3
20260905232955 59 278 2.6 5.2 0.00 0.00 0.00 66 983.2
20260905231955 59 280 1.7 5.2 0.00 0.00 0.00 65 983.2
20260905230955 60 280 2.6 5.2 0.00 0.00 0.00 65 983.1
20260905225955 60 284 1.7 5.2 0.00 0.00 0.00 64 983.0
20260905224955 61 281 2.6 5.2 0.00 0.00 0.00 63 982.9
20260905223955 61 270 2.6 5.2 0.00 0.00 0.00 62 982.9
20260905222955 61 270 1.7 5.2 0.00 0.00 0.00 62 983.0
20260905221955 61 290 1.7 5.2 0.00 0.00 0.00 61 982.9
20260905220955 62 285 2.6 5.2 0.00 0.00 0.00 61 982.9
20260905215955 62 284 2.6 5.2 0.00 0.00 0.00 61 983.0
20260905214955 62 288 3.5 7.8 0.00 0.00 0.00 61 982.9
20260905213955 62 285 2.6 7.8 0.00 0.00 0.00 61 982.8
20260905212955 63 270 2.6 7.0 0.00 0.00 0.00 60 982.7
20260905211955 63 231 1.7 6.1 0.00 0.00 0.00 60 982.5
20260905210955 63 270 1.7 5.2 0.00 0.00 0.00 59 982.4
20260905205955 64 270 1.7 4.3 0.00 0.00 0.00 58 982.3
20260905204955 64 279 1.7 4.3 0.00 0.00 0.00 58 982.3
20260905203955 64 279 1.7 4.3 0.00 0.00 0.00 58 982.3
20260905202955 65 270 1.7 4.3 0.00 0.00 0.00 56 982.2
20260905191955 67 289 1.7 5.2 0.00 0.00 0.00 53 981.6
20260905190955 67 296 1.7 5.2 0.00 0.00 0.00 53 981.4
20260905185955 67 297 1.7 5.2 0.00 0.00 0.00 53 981.3
20260905184956 68 309 2.6 7.0 0.00 0.00 0.00 52 981.2
20260905183955 68 309 2.6 7.0 0.00 0.00 0.00 52 981.2
20260905182955 68 299 2.6 9.6 0.00 0.00 0.00 52 981.0
20260905181955 69 298 2.6 12.2 0.00 0.00 0.00 52 980.7
20260905180955 69 299 2.6 7.8 0.00 0.00 0.00 53 980.6
20260905175955 70 304 1.7 6.1 0.00 0.00 0.00 53 980.4
20260905174955 70 298 3.5 7.8 0.00 0.00 0.00 52 980.2
20260905173955 71 304 3.5 9.6 0.00 0.00 0.00 51 980.0
20260905172955 71 304 3.5 9.6 0.00 0.00 0.00 51 980.0
20260905171955 71 294 5.2 14.8 0.00 0.00 0.00 49 979.8
20260905170955 72 295 6.1 13.9 0.00 0.00 0.00 48 979.6
20260905165955 72 290 7.0 18.2 0.00 0.00 0.00 48 979.4
20260905164955 73 294 9.6 19.1 0.00 0.00 0.00 48 979.3
20260905163955 73 293 6.1 20.0 0.00 0.00 0.00 49 979.1
20260905162955 73 294 7.8 19.1 0.00 0.00 0.00 48 978.8
20260905161955 73 294 7.8 19.1 0.00 0.00 0.00 48 978.8
20260905160955 73 290 7.0 20.0 0.00 0.00 0.00 49 978.7
20260905155955 74 296 7.8 18.2 0.00 0.00 0.00 48 978.5
20260905154955 74 281 6.1 20.9 0.00 0.00 0.00 49 978.5
20260905153955 73 287 5.2 14.8 0.00 0.00 0.00 50 978.6
20260905152955 74 286 5.2 16.5 0.00 0.00 0.00 49 978.5
20260905151955 74 280 4.3 12.2 0.00 0.00 0.00 51 978.4
20260905150955 74 292 5.2 12.2 0.00 0.00 0.00 51 978.3
20260905145955 74 275 5.2 16.5 0.00 0.00 0.00 50 978.4
20260905144955 74 275 5.2 16.5 0.00 0.00 0.00 50 978.4
20260905143956 75 286 7.8 14.8 0.00 0.00 0.00 49 978.4
20260905142954 75 290 7.0 16.5 0.00 0.00 0.00 50 978.4
20260905141955 76 283 6.1 14.8 0.00 0.00 0.00 50 978.3
20260905140955 76 270 5.2 16.5 0.00 0.00 0.00 51 978.4
20260905135954 76 265 7.0 25.2 0.00 0.00 0.00 51 978.4
20260905134955 76 255 5.2 11.3 0.00 0.00 0.00 52 978.4
20260905133955 75 274 7.0 14.8 0.00 0.00 0.00 52 978.5
20260905132955 75 281 6.1 14.8 0.00 0.00 0.00 53 978.5
20260905131955 75 279 7.0 16.5 0.00 0.00 0.00 52 978.5
20260905130954 75 261 7.0 20.0 0.00 0.00 0.00 52 978.6
20260905125955 74 270 7.8 20.9 0.00 0.00 0.00 53 978.6
20260905124956 74 270 7.8 20.9 0.00 0.00 0.00 53 978.6
20260905123955 74 263 7.0 16.5 0.00 0.00 0.00 55 978.6
20260905122955 73 266 7.0 19.1 0.00 0.00 0.00 54 978.7
20260905121955 73 264 5.2 14.8 0.00 0.00 0.00 57 978.8
20260905120955 73 256 6.1 16.5 0.00 0.00 0.00 58 978.8
20260905115955 73 256 5.2 13.0 0.00 0.00 0.00 61 978.8
20260905114955 72 270 5.2 13.0 0.00 0.00 0.00 63 979.0
20260905113954 72 270 5.2 13.0 0.00 0.00 0.00 63 979.0
20260905112955 72 273 5.2 13.9 0.00 0.00 0.00 64 979.1
20260905111955 72 229 4.3 12.2 0.00 0.00 0.00 66 979.1
20260905110955 71 257 5.2 12.2 0.00 0.00 0.00 65 979.1
20260905105955 71 235 5.2 13.0 0.00 0.00 0.00 66 979.1
20260905104955 70 259 4.3 13.0 0.00 0.00 0.00 68 979.1
20260905103955 70 239 5.2 14.8 0.00 0.00 0.00 67 979.2
20260905102955 69 280 7.8 16.5 0.00 0.00 0.00 67 979.2
20260905095955 68 243 5.2 16.5 0.00 0.00 0.00 72 979.2
20260905094955 68 243 5.2 16.5 0.00 0.00 0.00 72 979.2
20260905093955 67 218 6.1 14.8 0.00 0.00 0.00 74 979.3
20260905092955 67 259 5.2 13.0 0.00 0.00 0.00 74 979.3
20260905091955 67 241 4.3 13.9 0.00 0.00 0.00 75 979.3
20260905090955 66 238 5.2 14.8 0.00 0.00 0.00 75 979.3
20260905085954 65 237 5.2 11.3 0.00 0.00 0.00 76 979.2
20260905084954 65 237 5.2 11.3 0.00 0.00 0.00 76 979.2
20260905083954 65 280 5.2 12.2 0.00 0.00 0.00 78 979.2
20260905082954 65 280 5.2 12.2 0.00 0.00 0.00 78 979.2
20260905081954 64 228 4.3 9.6 0.00 0.00 0.00 79 979.1
20260905080954 63 248 4.3 12.2 0.00 0.00 0.00 81 979.1
20260905075954 62 249 4.3 12.2 0.00 0.00 0.00 82 979.1
20260905074954 62 249 4.3 12.2 0.00 0.00 0.00 82 979.1
20260905073954 61 264 4.3 9.6 0.00 0.00 0.00 82 978.9
20260905072954 61 279 5.2 10.4 0.00 0.00 0.00 83 978.9
20260905071954 61 279 5.2 10.4 0.00 0.00 0.00 83 978.9
20260905070954 61 230 1.7 7.0 0.00 0.00 0.00 84 978.7
20260905065954 60 216 1.7 5.2 0.00 0.00 0.00 84 978.6
20260905064954 60 216 1.7 5.2 0.00 0.00 0.00 84 978.6
20260905063954 60 211 2.6 6.1 0.00 0.00 0.00 83 978.6
20260905062954 59 209 4.3 9.6 0.00 0.00 0.00 83 978.5
20260905061954 59 217 2.6 7.8 0.00 0.00 0.00 83 978.7
20260905060954 59 216 3.5 7.0 0.00 0.00 0.00 82 978.5
20260905055954 59 223 2.6 7.0 0.00 0.00 0.00 82 978.3
20260905054954 59 234 1.7 5.2 0.00 0.00 0.00 82 978.3
20260905053954 59 225 1.7 5.2 0.00 0.00 0.00 82 978.2
20260905052954 59 243 1.7 3.5 0.00 0.00 0.00 81 978.1
20260905051954 60 270 0.9 2.6 0.00 0.00 0.00 81 977.9
20260905050954 60 229 1.7 5.2 0.00 0.00 0.00 81 977.5
20260905045954 60 214 4.3 7.0 0.00 0.00 0.00 81 977.3
20260905044954 60 214 4.3 7.8 0.00 0.00 0.00 81 977.2
20260905043955 60 237 1.7 5.2 0.00 0.00 0.00 81 977.4
20260905042954 61 213 5.2 11.3 0.00 0.00 0.00 81 977.2
20260905041954 61 221 2.6 7.8 0.00 0.00 0.00 81 976.9
20260905040954 62 211 7.0 12.2 0.00 0.00 0.00 80 976.3
20260905035954 62 217 4.3 9.6 0.00 0.00 0.00 80 976.4
20260905034954 63 223 2.6 6.1 0.00 0.00 0.00 79 976.8
20260905033954 64 227 3.5 9.6 0.00 0.00 0.00 80 977.0
20260905032954 64 213 5.2 10.4 0.00 0.00 0.00 81 976.8
20260905031954 65 225 1.7 5.2 0.00 0.00 0.00 81 977.2
20260905030955 65 281 1.7 4.3 0.00 0.00 0.00 79 977.0
20260905025954 65 280 1.7 3.5 0.00 0.00 0.00 77 977.0
20260905024955 65 280 1.7 5.2 0.00 0.00 0.00 76 976.6
20260905023955 66 252 1.7 6.1 0.00 0.00 0.00 75 976.5